KINEIS-3D

Last updated on Thu Oct 23 2025 00:02:49 GMT+0000 (Coordinated Universal Time)

1 61221U 24172B 25295.47453825 .00003979 00000+0 63724-3 0 9991 2 61221 98.0295 23.2087 0001786 148.8807 211.2506 14.72303227 58378
UTC large
Height (km)
Speed (km/s)
/
Latitude / Longitude
Inclination (degrees)
Orbital Period (minutes)
Azimuth
Elevation
Range (km)
Doppler Factor

Next 0 passes for location: London (51.5072 / 0.1276)

Sorry there are no passes over London.